RH
17 18 18 19 20 20 21 22 23 24 24 25 25 26 26 26 27 26 26 26 25 25 24 23 22 21 20 21 22 24 26 28 29 28 26 24 22 22 22 24 27 31
21 21 22 22 23 23 25 26 27 29 29 30 31 31 31 31 31 31 31 31 31 31 31 32 32 32 33 33 34 35 35 36 35 34 32 29 26 25 25 26 29 32
23 23 24 24 25 26 28 30 31 32 33 33 33 33 33 33 32 32 33 33 33 33 34 35 36 38 39 39 40 41 40 41 41 40 40 37 34 31 29 30 31 34
24 24 25 26 27 29 31 33 34 34 34 34 34 35 35 34 34 34 33 34 34 35 36 37 39 41 43 44 45 46 46 47 46 46 46 44 41 36 33 34 35 38
25 25 26 27 29 32 34 34 35 35 35 35 36 37 37 37 37 36 36 36 36 36 37 39 41 44 46 48 50 51 51 52 52 51 50 48 46 40 36 37 38 42
27 28 29 31 32 34 35 35 36 37 37 38 38 38 39 40 40 40 40 40 40 40 40 41 44 47 50 52 53 55 56 56 56 54 52 51 47 42 39 39 41 43
32 33 34 35 36 37 38 38 39 40 40 41 40 40 42 43 44 45 45 45 45 45 44 45 47 50 55 58 58 58 59 60 60 58 55 52 48 43 40 41 45 49
37 38 39 40 40 40 41 41 42 42 43 44 43 43 46 47 48 49 50 51 50 50 50 50 51 53 58 62 63 63 63 64 64 62 59 55 49 44 41 41 46 50
39 40 41 41 41 41 41 41 42 43 45 46 46 47 51 52 53 54 55 56 55 55 55 55 56 59 64 67 67 67 67 68 68 67 65 60 55 50 46 45 49 51
40 41 41 41 42 42 43 44 45 46 47 48 49 52 55 57 59 60 61 61 61 60 60 61 63 67 71 72 72 72 72 73 74 73 72 70 67 63 60 60 64 66
43 44 45 46 47 48 49 50 50 51 51 53 55 58 60 63 65 66 66 66 66 66 67 68 71 74 76 76 76 77 78 79 82 83 82 82 80 78 76 79 82 84
49 50 52 53 54 55 56 57 58 59 60 61 64 66 67 69 71 72 72 73 73 74 76 77 79 81 81 81 82 84 86 88 90 91 91 91 90 89 91 93 95 95
59 60 60 61 62 63 64 66 67 69 70 71 73 75 74 76 78 79 80 80 81 82 83 84 86 86 86 87 90 92 94 96 96 97 97 97 97 98 99 100 100 99
66 67 67 68 69 70 71 73 74 76 77 79 81 82 83 85 87 87 88 88 89 90 90 91 92 93 94 95 97 98 99 99 99 99 100 100 100 100 100 100 100 100
69 69 70 70 71 73 75 77 79 82 84 87 90 92 94 95 96 96 96 96 96 97 97 98 98 98 99 99 100 100 100 100 100 100 100 100 100 100 100 100 100 100
71 71 72 74 76 78 81 83 86 90 93 96 99 99 99 99 99 100 100 99 100 100 100 100 100 100 100 100 100 100 100 100 100 100 100 100 100 100 100 100 100 100
75 76 78 80 83 85 88 91 94 96 99 100 101 101 100 100 100 100 100 100 100 100 100 100 100 100 100 100 100 100 100 100 100 100 100 100 99 99 99 100 100 100
82 83 85 87 90 92 94 96 98 100 100 100 100 100 100 100 100 100 100 100 100 100 100 100 100 100 100 100 100 100 100 100 100 100 99 98 98 98 99 100 100 100
89 90 91 93 94 96 97 99 101 101 101 100 100 101 101 100 100 100 100 100 100 100 100 100 100 100 99 100 100 100 100 100 99 99 98 97 97 98 100 100 99 100
93 93 94 96 96 97 99 101 102 102 102 101 101 101 101 101 101 100 100 100 100 100 100 100 100 100 100 100 100 100 100 100 98 98 99 99 99 100 100 100 100 100
95 95 96 97 98 99 100 101 101 102 102 102 102 101 101 101 101 101 100 100 100 100 100 100 99 100 100 100 100 100 100 100 99 95 95 97 99 100 100 101 101 101
97 96 97 98 98 99 100 100 101 102 102 102 101 101 101 101 101 101 101 101 102 101 101 101 100 100 100 100 100 100 99 100 100 96 92 93 95 96 99 101 102 102
97 96 96 97 98 98 98 99 100 101 101 102 101 101 102 102 102 103 103 102 103 102 102 102 101 101 102 101 100 100 100 100 101 99 96 94 93 94 96 99 101 102
96 95 95 95 96 96 97 98 98 99 99 99 99 98 99 101 101 102 102 102 102 102 101 101 101 102 103 102 100 100 100 100 100 99 98 98 96 95 95 97 100 102
95 95 95 95 95 96 97 97 97 98 98 97 97 97 97 99 100 101 101 100 100 100 100 100 100 101 103 102 101 100 100 100 100 99 98 97 97 95 95 96 97 98
96 97 97 97 96 96 97 97 96 97 97 97 97 98 98 100 101 101 100 100 100 100 100 100 100 101 102 102 101 100 100 100 100 98 96 95 95 95 95 96 98 99
Wind_Speed
36 37 38 39 40 40 40 41 41 42 43 44 45 45 45 45 45 46 47 48 48 49 50 50 51 53 54 55 55 56 56 56 55 55 55 56 56 56 56 56 56 55
37 38 39 40 41 41 41 41 42 43 44 44 45 45 45 46 46 47 48 49 49 50 50 51 52 52 53 54 54 54 54 54 54 54 55 55 55 56 57 56 56 56
39 40 41 42 42 42 42 42 43 44 44 44 45 45 46 46 47 49 49 50 51 51 51 52 52 52 52 52 52 53 53 54 54 54 54 55 55 56 57 56 56 56
40 41 42 43 44 43 43 44 45 45 44 45 45 45 46 47 48 50 51 51 52 53 53 53 53 53 52 52 52 52 53 53 53 53 54 55 55 56 56 56 56 56
42 43 44 44 44 44 44 45 45 45 45 45 45 45 46 47 49 51 52 53 54 54 55 55 55 54 53 53 53 53 53 53 53 53 54 55 55 55 55 56 56 55
42 43 43 44 44 44 45 46 45 45 45 45 45 45 46 48 49 51 53 54 56 56 57 57 57 56 55 54 54 54 53 53 53 53 54 54 54 54 54 55 55 55
42 43 43 43 43 44 45 45 45 45 45 45 46 47 48 49 50 52 54 55 57 58 59 58 58 57 56 55 55 55 54 53 52 52 53 53 53 53 53 54 54 54
42 42 41 42 43 43 44 44 44 45 45 46 48 48 49 51 52 53 55 56 58 59 59 59 58 58 57 56 56 55 54 52 52 52 52 52 52 52 52 52 53 53
42 42 42 43 44 44 45 45 46 46 47 48 49 50 51 52 53 54 55 56 57 58 59 59 58 58 57 56 56 55 54 52 51 51 51 51 51 52 51 51 52 51
44 44 44 45 46 47 47 48 48 49 50 51 51 52 53 53 54 54 55 56 57 58 58 58 58 57 56 56 56 55 54 52 51 51 51 51 51 51 51 50 50 50
45 46 47 47 48 49 49 50 51 52 53 53 54 54 55 55 55 55 55 56 56 56 56 56 56 55 55 56 55 54 53 52 52 51 51 51 51 50 49 48 48 49
47 47 48 49 49 50 51 52 53 54 55 55 56 56 56 56 55 55 54 54 54 54 54 54 54 54 55 55 54 53 53 52 52 51 50 50 48 47 47 47 48 49
48 49 49 50 51 52 53 53 54 55 56 56 56 56 56 56 54 53 53 52 52 52 52 53 53 53 53 53 53 52 52 51 51 49 48 47 46 46 47 48 49 49
50 51 52 52 53 54 54 55 56 56 56 56 56 55 55 54 53 52 51 51 50 51 51 51 51 52 52 51 51 51 50 49 48 47 46 46 47 47 48 48 49 48
52 53 54 55 56 56 56 56 56 55 55 54 53 53 52 51 51 50 50 49 49 49 49 49 49 49 49 49 48 48 47 46 46 46 46 47 47 47 48 48 48 48
55 56 56 57 57 56 55 55 53 52 51 50 50 49 49 49 49 49 48 48 48 47 47 47 47 47 46 46 45 45 45 46 46 46 46 47 47 47 48 48 48 48
56 56 55 54 53 52 51 50 49 48 47 47 46 46 46 47 47 47 47 47 47 46 46 45 45 44 44 44 44 44 45 45 45 45 46 46 47 48 48 48 48 49
52 51 50 49 48 47 46 45 45 45 45 45 45 45 45 46 45 46 45 45 45 45 45 44 44 44 43 43 44 44 44 45 45 46 46 47 48 48 48 48 49 49
47 46 45 44 44 44 43 43 43 44 44 44 44 44 44 44 43 43 43 43 43 43 43 43 43 44 44 44 44 44 44 45 45 46 47 47 48 48 48 49 49 50
44 44 43 43 43 42 42 42 42 42 42 42 42 42 42 42 41 41 41 41 41 41 42 42 42 43 43 43 44 44 44 45 46 46 47 48 48 49 49 50 51 51
42 42 41 41 41 40 40 40 40 40 40 40 40 40 40 40 40 40 40 40 40 40 40 40 40 41 42 42 43 43 43 45 46 46 47 48 48 49 49 50 50 50
41 41 41 40 40 39 39 39 39 39 38 38 38 38 39 39 39 39 39 39 39 39 39 40 40 40 40 40 41 41 42 43 44 45 46 47 47 47 47 48 48 49
40 40 40 40 39 39 39 39 39 38 38 39 39 39 39 39 39 39 40 40 40 40 40 40 40 40 40 40 39 39 39 40 41 42 44 45 46 46 46 46 46 47
40 40 40 39 39 39 39 39 39 39 39 39 39 39 39 39 39 39 39 40 40 40 40 40 40 40 39 39 39 38 38 39 40 41 42 44 45 46 46 46 46 46
40 40 39 39 39 39 39 39 39 39 39 39 39 39 39 39 39 39 39 39 39 39 39 39 39 39 39 39 38 38 37 38 39 40 42 43 44 46 46 46 46 46
39 39 39 38 38 38 38 38 38 38 38 38 38 38 38 37 37 37 37 38 38 38 38 38 38 38 38 38 37 37 36 36 38 40 41 42 43 44 45 45 46 46
Wind_Direction
272 272 273 273 273 273 273 272 273 273 273 273 273 274 275 275 275 275 275 274 274 273 273 272 271 271 271 271 271 271 272 272 271 270 269 269 268 267 266 266 266 266
274 274 273 273 272 272 272 272 272 272 272 273 274 275 276 276 276 276 276 276 276 275 275 274 273 273 272 272 272 272 272 271 271 270 270 269 268 267 266 266 265 265
274 273 273 273 272 272 272 272 271 271 272 273 274 275 276 277 277 276 277 277 277 276 276 275 275 274 273 272 272 271 271 271 271 271 270 269 268 267 267 266 265 264
274 274 273 273 273 272 272 271 271 272 273 274 275 277 277 278 278 278 278 278 277 277 277 276 275 273 272 272 271 271 271 271 271 270 270 269 269 268 267 266 265 264
274 274 273 273 273 272 272 272 272 274 275 276 277 278 279 279 280 280 280 280 279 278 277 276 275 274 272 271 270 271 271 271 271 270 270 270 269 268 267 266 264 263
274 273 272 272 272 272 272 273 274 275 276 278 279 279 279 280 280 281 281 281 280 279 278 276 275 274 272 271 270 270 270 271 271 270 270 270 269 268 267 265 264 263
273 272 271 271 271 272 273 274 275 277 278 279 279 279 280 280 280 280 281 281 280 279 278 277 276 274 272 271 270 269 270 270 270 270 270 270 269 268 266 265 264 263
273 272 271 272 272 273 274 275 277 278 279 279 279 279 280 280 280 280 280 280 279 279 278 277 276 275 273 271 270 270 270 270 270 269 269 269 268 267 266 264 263 263
273 273 273 274 274 275 276 277 278 279 279 280 280 281 281 281 280 280 280 279 279 278 277 277 276 274 273 271 271 270 270 269 269 269 268 268 267 266 265 263 262 261
276 277 277 278 279 280 280 281 281 281 281 282 282 282 282 282 282 281 279 279 278 277 276 276 275 273 272 271 270 270 269 269 268 267 267 267 266 265 263 261 261 260
279 280 281 282 283 283 284 284 284 284 285 285 285 285 284 284 283 281 280 278 277 276 275 274 273 272 271 270 270 269 269 268 268 268 268 267 266 265 263 261 261 262
282 283 284 285 285 285 286 286 286 286 286 286 286 286 285 284 283 281 280 278 276 275 273 272 271 270 269 269 269 269 269 269 269 269 269 268 266 265 264 264 264 265
284 285 285 286 286 286 287 287 287 287 287 287 286 286 285 284 282 281 279 276 275 273 271 270 269 269 269 269 269 270 270 270 270 270 270 269 268 267 267 266 267 267
285 285 286 286 286 287 287 287 287 287 286 286 285 284 283 282 281 279 277 275 273 271 270 269 269 269 270 270 270 270 270 270 270 270 269 269 269 268 268 267 266 265
285 285 286 287 287 287 287 287 287 286 285 284 283 282 281 280 279 278 276 275 273 272 271 270 270 270 270 270 270 269 269 269 269 269 269 268 268 267 266 265 264 264
287 288 288 288 288 288 288 287 286 285 283 282 281 280 279 278 278 277 276 276 275 274 273 272 271 271 271 270 270 269 269 269 268 268 267 267 266 265 264 264 264 264
291 290 290 290 289 289 288 287 286 284 283 282 281 280 279 279 278 277 277 276 276 275 274 274 273 272 271 271 270 269 268 268 267 266 266 265 264 264 264 264 264 263
293 292 291 290 289 288 287 286 286 285 284 283 282 281 281 280 279 279 278 277 277 276 275 274 273 272 271 270 269 268 267 266 266 265 265 264 264 263 263 263 262 262
293 292 291 290 289 288 287 286 286 285 284 283 283 282 282 281 280 279 279 278 277 276 275 274 273 272 271 270 269 268 267 266 265 265 265 264 263 263 262 262 261 261
293 292 291 290 290 289 288 287 286 285 285 284 283 283 282 281 280 279 278 277 277 276 275 274 274 273 272 271 270 269 268 267 267 266 265 264 264 263 262 262 262 262
295 294 293 292 291 290 289 288 287 286 286 285 284 283 282 281 281 280 279 278 278 277 276 276 275 274 273 272 271 270 268 267 267 267 266 265 264 264 263 263 263 262
297 296 295 294 293 292 290 289 288 288 286 285 285 284 283 283 282 281 281 280 279 278 277 276 275 275 274 273 272 271 269 268 267 268 268 267 266 265 263 263 262 262
298 297 296 295 294 293 291 290 289 288 287 287 286 285 285 284 283 283 282 281 280 279 278 277 276 276 275 274 273 271 270 268 267 268 268 268 268 266 264 262 261 260
298 297 296 295 294 293 292 291 291 290 289 288 287 287 286 285 284 283 282 281 281 280 279 278 278 277 276 275 274 272 270 268 266 266 265 265 266 266 265 264 262 260
298 298 297 296 295 295 294 293 292 291 291 290 289 288 287 286 285 284 283 283 282 281 281 280 279 278 278 276 275 273 270 267 266 265 263 263 263 264 264 264 264 263
300 299 298 297 296 295 295 294 293 292 291 290 290 289 288 287 286 285 284 284 283 283 282 281 281 280 279 278 276 273 270 267 266 265 265 264 264 264 265 265 265 266